Flag for India Weather past 2 weeks in Kapurthala, Punjab, India

Now
64 °F

Broken clouds.


Feels Like: 64 °F
Forecast: 49 / 73 °F
Wind: 7 mph from Northwest

Location: Amritsar Airport

Current Time: Mar 5, 2015 at 2:05:00 PM

Latest Report: Mar 5, 2015 at 12:30 PM


Visibility: 2 mi

Pressure: 30.07 "Hg

Humidity: 68%

Dew point: 54 °F

Location of KapurthalaLocation

Historic Weather in Kapurthala — Graph

°F

Kapurthala temperature yesterday

Maximum temperature yesterday: 70 °F (at 2:00 PM)
Minimum temperature yesterday: 46 °F (at 6:30 AM)
Average temperature yesterday: 58 °F

Past Weeks' High & Low Weather Summary

 TemperatureHumidityPressure
High79 °F (Feb 23, 3:30 PM)100% (Feb 19, 7:30 PM)30.09 "Hg (Feb 19, 7:30 PM)
Low46 °F (Mar 4, 6:30 AM)36% (Feb 27, 2:30 PM)29.71 "Hg (Feb 25, 7:30 AM)
Average63 °F81%29.94 "Hg
* Reported Feb 18 12:30 PM — Mar 5 12:30 PM, Kapurthala, Weather by CustomWeather, © 2015

Note: Actual official high and low records may vary slightly from our data, if they occured in-between our weather recording intervals... More about our weather records

Advertising

Kapurthala weather history for previous 24 hours

 ConditionsComfort  
Time TempWeatherWind HumidityBarometerVisibility
12:30 PM
Thu, Mar 5
64 °FBroken clouds.7 mph68%30.07 "Hg2 mi
12:00 PM64 °FBroken clouds.7 mph68%30.07 "Hg2 mi
10:00 AM61 °FFog.9 mph83%30.07 "Hg2 mi
9:30 AM59 °FFog.9 mph88%30.07 "Hg2 mi
9:00 AM59 °FFog.8 mph88%30.04 "Hg2 mi
8:30 AM57 °FFog.8 mph94%30.04 "Hg2 mi
7:30 AM55 °FLight rain. Mostly cloudy.9 mph94%30.01 "Hg1 mi
6:30 AM57 °FThunderstorms. Mostly cloudy.7 mph94%30.01 "Hg1 mi
6:00 AM57 °FThunderstorms. Mostly cloudy.6 mph94%29.98 "Hg1 mi
5:30 AM57 °FThunderstorms. Mostly cloudy.9 mph94%29.98 "Hg1 mi
5:00 AM55 °FThunderstorms. Mostly cloudy.3 mph100%29.98 "Hg1 mi
2:30 AM55 °FFog.No wind94%30.01 "Hg1 mi
2:00 AM55 °FFog.No wind94%30.01 "Hg1 mi
1:30 AM55 °FFog.No wind94%30.01 "Hg1 mi
1:00 AM55 °FFog.No wind94%30.01 "Hg1 mi
12:30 AM55 °FFog.No wind94%30.01 "Hg1 mi
12:00 AM55 °FFog.No wind94%30.01 "Hg2 mi
11:00 PM
Wed, Mar 4
55 °FFog.No wind94%30.01 "Hg2 mi
10:30 PM57 °FFog.No wind88%30.01 "Hg2 mi
10:00 PM57 °FFog.No wind88%29.98 "Hg2 mi
9:30 PM57 °FFog.No wind88%29.98 "Hg2 mi
9:00 PM57 °FFog.No wind88%29.98 "Hg2 mi
8:30 PM59 °FFog.No wind82%29.95 "Hg2 mi
8:00 PM61 °FFog.No wind77%29.95 "Hg2 mi
7:30 PM63 °FPassing clouds.No wind73%29.95 "Hg2 mi
7:00 PM64 °FPassing clouds.No wind68%29.92 "Hg2 mi
6:30 PM64 °FScattered clouds.No wind68%29.92 "Hg2 mi
5:30 PM68 °FScattered clouds.6 mph56%29.95 "Hg3 mi
5:00 PM68 °FScattered clouds.7 mph53%29.92 "Hg3 mi
4:30 PM68 °FHaze.7 mph56%29.95 "Hg3 mi
4:00 PM70 °FHaze.3 mph53%29.95 "Hg3 mi
3:30 PM70 °FHaze.3 mph57%29.95 "Hg3 mi
3:00 PM70 °FHaze.6 mph50%29.95 "Hg3 mi
2:30 PM68 °FHaze.8 mph53%29.98 "Hg3 mi
2:00 PM70 °FHaze.5 mph57%29.98 "Hg3 mi
Weather by CustomWeather, © 2015

See weather overviewHow to use our weather pages